Location: Arbon
(43.0005°N, 0.7472°E)
Time: 12:42:09
(UTC+00:00)

SR - Pass Details

Date: 05 December 2020
Orbit: 575 x 880 km, 66.7° (Epoch: 17 January)

Event Time Altitude Azimuth Distance (km) Brightness Sun altitude
Rises 17:57:34 0° 250° (WSW) 2,836 ? -16.8°
Reaches altitude 10° 18:00:13 10° 266° (W) 1,972 ? -17.3°
Maximum altitude 18:03:37 21° 317° (NW) 1,431 ? -17.9°
Drops below altitude 10° 18:07:13 10° 7° (N) 2,104 ? -18.5°
Enters shadow 18:07:43 - 10° (N) 2,258 ? -18.6°
